Location: Unspecified
(48.8582°N, 2.2947°E)
Time: 19:59:46
(UTC+02:00)

ISS - Pass Details

Date: 28 March 2019
Orbit: 408 x 410 km, 51.6° (Epoch: 26 April)

Event Time Altitude Azimuth Distance (km) Brightness Sun altitude
Rises 22:28:51 0° 289° (WNW) 2,339 0.9 -29.0°
Reaches altitude 10° 22:30:57 10° 291° (WNW) 1,476 -0.2 -29.2°
Enters shadow 22:31:25 13° 292° (WNW) 1,282 -0.6 -29.3°
